Year,Month,Day,Hour,Minute,Value (Times are PST for temperature in C)
2011,07,05,00,00,10.60
2011,07,05,00,01,10.60
2011,07,05,00,02,10.50
2011,07,05,00,03,10.40
2011,07,05,00,04,10.40
2011,07,05,00,05,10.40
2011,07,05,00,06,10.40
2011,07,05,00,07,10.40
2011,07,05,00,08,10.40
2011,07,05,00,09,10.40
2011,07,05,00,10,10.30
2011,07,05,00,11,10.30
2011,07,05,00,12,10.30
2011,07,05,00,13,10.30
2011,07,05,00,14,10.30
2011,07,05,00,15,10.30
2011,07,05,00,16,10.20
2011,07,05,00,17,10.20
2011,07,05,00,18,10.20
2011,07,05,00,19,10.20
2011,07,05,00,20,10.10
2011,07,05,00,21,10.10
2011,07,05,00,22,10.10
2011,07,05,00,23,10.10
2011,07,05,00,24,10.10
2011,07,05,00,25,10.00
2011,07,05,00,26,9.90
2011,07,05,00,27,9.90
2011,07,05,00,28,9.90
2011,07,05,00,29,9.90
2011,07,05,00,30,9.90
2011,07,05,00,31,9.90
2011,07,05,00,32,9.90
2011,07,05,00,33,9.90
2011,07,05,00,34,9.90
2011,07,05,00,35,9.90
2011,07,05,00,36,9.90
2011,07,05,00,37,9.90
2011,07,05,00,38,9.90
2011,07,05,00,39,9.90
2011,07,05,00,40,9.90
2011,07,05,00,41,9.80
2011,07,05,00,42,9.80
2011,07,05,00,43,9.80
2011,07,05,00,44,9.70
2011,07,05,00,45,9.70
2011,07,05,00,46,9.70
2011,07,05,00,47,9.70
2011,07,05,00,48,9.70
2011,07,05,00,49,9.70
2011,07,05,00,50,9.70
2011,07,05,00,51,9.70
2011,07,05,00,52,9.70
2011,07,05,00,53,9.60
2011,07,05,00,54,9.60
2011,07,05,00,55,9.60
2011,07,05,00,56,9.60
2011,07,05,00,57,9.60
2011,07,05,00,58,9.50
2011,07,05,00,59,9.50
2011,07,05,01,00,9.50
2011,07,05,01,01,9.50
2011,07,05,01,02,9.50
2011,07,05,01,03,9.50
2011,07,05,01,04,9.40
2011,07,05,01,05,9.40
2011,07,05,01,06,9.40
2011,07,05,01,07,9.40
2011,07,05,01,08,9.30
2011,07,05,01,09,9.30
2011,07,05,01,10,9.20
2011,07,05,01,11,9.20
2011,07,05,01,12,9.20
2011,07,05,01,13,9.20
2011,07,05,01,14,9.20
2011,07,05,01,15,9.20
2011,07,05,01,16,9.20
2011,07,05,01,17,9.20
2011,07,05,01,18,9.20
2011,07,05,01,19,9.20
2011,07,05,01,20,9.20
2011,07,05,01,21,9.20
2011,07,05,01,22,9.20
2011,07,05,01,23,9.10
2011,07,05,01,24,9.10
2011,07,05,01,25,9.10
2011,07,05,01,26,9.00
2011,07,05,01,27,9.00
2011,07,05,01,28,9.00
2011,07,05,01,29,9.00
2011,07,05,01,30,8.90
2011,07,05,01,31,8.90
2011,07,05,01,32,8.90
2011,07,05,01,33,8.80
2011,07,05,01,34,8.80
2011,07,05,01,35,8.80
2011,07,05,01,36,8.80
2011,07,05,01,37,8.80
2011,07,05,01,38,8.70
2011,07,05,01,39,8.70
2011,07,05,01,40,8.70
2011,07,05,01,41,8.70
2011,07,05,01,42,8.70
2011,07,05,01,43,8.70
2011,07,05,01,44,8.70
2011,07,05,01,45,8.70
2011,07,05,01,46,8.60
2011,07,05,01,47,8.60
2011,07,05,01,48,8.60
2011,07,05,01,49,8.60
2011,07,05,01,50,8.60
2011,07,05,01,51,8.60
2011,07,05,01,52,8.60
2011,07,05,01,53,8.70
2011,07,05,01,54,8.70
2011,07,05,01,55,8.70
2011,07,05,01,56,8.70
2011,07,05,01,57,8.70
2011,07,05,01,58,8.70
2011,07,05,01,59,8.70
2011,07,05,02,00,8.70
2011,07,05,02,01,8.70
2011,07,05,02,02,8.70
2011,07,05,02,03,8.70
2011,07,05,02,04,8.70
2011,07,05,02,05,8.60
2011,07,05,02,06,8.60
2011,07,05,02,07,8.50
2011,07,05,02,08,8.50
2011,07,05,02,09,8.50
2011,07,05,02,10,8.40
2011,07,05,02,11,8.40
2011,07,05,02,12,8.40
2011,07,05,02,13,8.40
2011,07,05,02,14,8.40
2011,07,05,02,15,8.40
2011,07,05,02,16,8.30
2011,07,05,02,17,8.30
2011,07,05,02,18,8.30
2011,07,05,02,19,8.30
2011,07,05,02,20,8.20
2011,07,05,02,21,8.20
2011,07,05,02,22,8.20
2011,07,05,02,23,8.20
2011,07,05,02,24,8.20
2011,07,05,02,25,8.20
2011,07,05,02,26,8.20
2011,07,05,02,27,8.20
2011,07,05,02,28,8.10
2011,07,05,02,29,8.10
2011,07,05,02,30,8.10
2011,07,05,02,31,8.10
2011,07,05,02,32,8.10
2011,07,05,02,33,8.00
2011,07,05,02,34,8.00
2011,07,05,02,35,8.00
2011,07,05,02,36,8.00
2011,07,05,02,37,8.00
2011,07,05,02,38,8.00
2011,07,05,02,39,7.90
2011,07,05,02,40,7.90
2011,07,05,02,41,7.90
2011,07,05,02,42,7.90
2011,07,05,02,43,8.00
2011,07,05,02,44,7.90
2011,07,05,02,45,7.90
2011,07,05,02,46,7.90
2011,07,05,02,47,7.90
2011,07,05,02,48,7.90
2011,07,05,02,49,8.00
2011,07,05,02,50,8.00
2011,07,05,02,51,8.00
2011,07,05,02,52,8.00
2011,07,05,02,53,8.00
2011,07,05,02,54,8.00
2011,07,05,02,55,8.00
2011,07,05,02,56,7.90
2011,07,05,02,57,7.90
2011,07,05,02,58,7.90
2011,07,05,02,59,7.90
2011,07,05,03,00,7.90
2011,07,05,03,01,8.00
2011,07,05,03,02,8.00
2011,07,05,03,03,8.00
2011,07,05,03,04,8.00
2011,07,05,03,05,8.00
2011,07,05,03,06,8.00
2011,07,05,03,07,7.90
2011,07,05,03,08,7.90
2011,07,05,03,09,7.90
2011,07,05,03,10,7.90
2011,07,05,03,11,7.90
2011,07,05,03,12,7.90
2011,07,05,03,13,7.90
2011,07,05,03,14,7.90
2011,07,05,03,15,7.90
2011,07,05,03,16,7.80
2011,07,05,03,17,7.80
2011,07,05,03,18,7.80
2011,07,05,03,19,7.70
2011,07,05,03,20,7.70
2011,07,05,03,21,7.60
2011,07,05,03,22,7.60
2011,07,05,03,23,7.60
2011,07,05,03,24,7.60
2011,07,05,03,25,7.60
2011,07,05,03,26,7.60
2011,07,05,03,27,7.60
2011,07,05,03,28,7.60
2011,07,05,03,29,7.60
2011,07,05,03,30,7.60
2011,07,05,03,31,7.60
2011,07,05,03,32,7.60
2011,07,05,03,33,7.50
2011,07,05,03,34,7.50
2011,07,05,03,35,7.50
2011,07,05,03,36,7.50
2011,07,05,03,37,7.50
2011,07,05,03,38,7.50
2011,07,05,03,39,7.40
2011,07,05,03,40,7.40
2011,07,05,03,41,7.40
2011,07,05,03,42,7.30
2011,07,05,03,43,7.30
2011,07,05,03,44,7.30
2011,07,05,03,45,7.30
2011,07,05,03,46,7.30
2011,07,05,03,47,7.30
2011,07,05,03,48,7.20
2011,07,05,03,49,7.20
2011,07,05,03,50,7.20
2011,07,05,03,51,7.10
2011,07,05,03,52,7.10
2011,07,05,03,53,7.10
2011,07,05,03,54,7.10
2011,07,05,03,55,7.00
2011,07,05,03,56,7.00
2011,07,05,03,57,7.00
2011,07,05,03,58,7.10
2011,07,05,03,59,7.10
2011,07,05,04,00,7.10
2011,07,05,04,01,7.10
2011,07,05,04,02,7.10
2011,07,05,04,03,7.10
2011,07,05,04,04,7.10
2011,07,05,04,05,7.10
2011,07,05,04,06,7.00
2011,07,05,04,07,7.00
2011,07,05,04,08,7.00
2011,07,05,04,09,7.00
2011,07,05,04,10,6.90
2011,07,05,04,11,6.90
2011,07,05,04,12,6.90
2011,07,05,04,13,6.80
2011,07,05,04,14,6.80
2011,07,05,04,15,6.80
2011,07,05,04,16,6.80
2011,07,05,04,17,6.80
2011,07,05,04,18,6.80
2011,07,05,04,19,6.80
2011,07,05,04,20,6.80
2011,07,05,04,21,6.80
2011,07,05,04,22,6.80
2011,07,05,04,23,6.80
2011,07,05,04,24,6.80
2011,07,05,04,25,6.80
2011,07,05,04,26,6.70
2011,07,05,04,27,6.70
2011,07,05,04,28,6.70
2011,07,05,04,29,6.70
2011,07,05,04,30,6.60
2011,07,05,04,31,6.60
2011,07,05,04,32,6.70
2011,07,05,04,33,6.70
2011,07,05,04,34,6.70
2011,07,05,04,35,6.70
2011,07,05,04,36,6.70
2011,07,05,04,37,6.70
2011,07,05,04,38,6.70
2011,07,05,04,39,6.70
2011,07,05,04,40,6.70
2011,07,05,04,41,6.70
2011,07,05,04,42,6.70
2011,07,05,04,43,6.70
2011,07,05,04,44,6.80
2011,07,05,04,45,6.80
2011,07,05,04,46,6.80
2011,07,05,04,47,6.80
2011,07,05,04,48,6.80
2011,07,05,04,49,6.80
2011,07,05,04,50,6.80
2011,07,05,04,51,6.80
2011,07,05,04,52,6.80
2011,07,05,04,53,6.80
2011,07,05,04,54,6.80
2011,07,05,04,55,6.80
2011,07,05,04,56,6.80
2011,07,05,04,57,6.80
2011,07,05,04,58,6.80
2011,07,05,04,59,6.80
2011,07,05,05,00,6.80
2011,07,05,05,01,6.80
2011,07,05,05,02,6.80
2011,07,05,05,03,6.80
2011,07,05,05,04,6.80
2011,07,05,05,05,6.80
2011,07,05,05,06,6.80
2011,07,05,05,07,6.80
2011,07,05,05,08,6.80
2011,07,05,05,09,6.80
2011,07,05,05,10,6.70
2011,07,05,05,11,6.70
2011,07,05,05,12,6.70
2011,07,05,05,13,6.70
2011,07,05,05,14,6.70
2011,07,05,05,15,6.70
2011,07,05,05,16,6.70
2011,07,05,05,17,6.70
2011,07,05,05,18,6.70
2011,07,05,05,19,6.70
2011,07,05,05,20,6.70
2011,07,05,05,21,6.70
2011,07,05,05,22,6.70
2011,07,05,05,23,6.70
2011,07,05,05,24,6.60
2011,07,05,05,25,6.60
2011,07,05,05,26,6.60
2011,07,05,05,27,6.60
2011,07,05,05,28,6.60
2011,07,05,05,29,6.60
2011,07,05,05,30,6.60
2011,07,05,05,31,6.60
2011,07,05,05,32,6.60
2011,07,05,05,33,6.60
2011,07,05,05,34,6.60
2011,07,05,05,35,6.50
2011,07,05,05,36,6.40
2011,07,05,05,37,6.40
2011,07,05,05,38,6.40
2011,07,05,05,39,6.40
2011,07,05,05,40,6.40
2011,07,05,05,41,6.40
2011,07,05,05,42,6.40
2011,07,05,05,43,6.40
2011,07,05,05,44,6.40
2011,07,05,05,45,6.50
2011,07,05,05,46,6.60
2011,07,05,05,47,6.60
2011,07,05,05,48,6.60
2011,07,05,05,49,6.60
2011,07,05,05,50,6.60
2011,07,05,05,51,6.60
2011,07,05,05,52,6.60
2011,07,05,05,53,6.60
2011,07,05,05,54,6.60
2011,07,05,05,55,6.60
2011,07,05,05,56,6.60
2011,07,05,05,57,6.60
2011,07,05,05,58,6.60
2011,07,05,05,59,6.60
2011,07,05,06,00,6.60
2011,07,05,06,01,6.70
2011,07,05,06,02,6.70
2011,07,05,06,03,6.70
2011,07,05,06,04,6.70
2011,07,05,06,05,6.70
2011,07,05,06,06,6.70
2011,07,05,06,07,6.70
2011,07,05,06,08,6.70
2011,07,05,06,09,6.70
2011,07,05,06,10,6.70
2011,07,05,06,11,6.70
2011,07,05,06,12,6.70
2011,07,05,06,13,6.80
2011,07,05,06,14,6.80
2011,07,05,06,15,6.80
2011,07,05,06,16,6.80
2011,07,05,06,17,6.80
2011,07,05,06,18,6.80
2011,07,05,06,19,6.80
2011,07,05,06,20,6.80
2011,07,05,06,21,6.80
2011,07,05,06,22,6.80
2011,07,05,06,23,6.90
2011,07,05,06,24,6.90
2011,07,05,06,25,6.90
2011,07,05,06,26,7.00
2011,07,05,06,27,7.00
2011,07,05,06,28,7.10
2011,07,05,06,29,7.10
2011,07,05,06,30,7.20
2011,07,05,06,31,7.20
2011,07,05,06,32,7.30
2011,07,05,06,33,7.30
2011,07,05,06,34,7.30
2011,07,05,06,35,7.40
2011,07,05,06,36,7.40
2011,07,05,06,37,7.50
2011,07,05,06,38,7.50
2011,07,05,06,39,7.60
2011,07,05,06,40,7.70
2011,07,05,06,41,7.70
2011,07,05,06,42,7.80
2011,07,05,06,43,7.80
2011,07,05,06,44,7.90
2011,07,05,06,45,7.90
2011,07,05,06,46,8.00
2011,07,05,06,47,8.10
2011,07,05,06,48,8.10
2011,07,05,06,49,8.20
2011,07,05,06,50,8.20
2011,07,05,06,51,8.20
2011,07,05,06,52,8.20
2011,07,05,06,53,8.30
2011,07,05,06,54,8.30
2011,07,05,06,55,8.40
2011,07,05,06,56,8.40
2011,07,05,06,57,8.50
2011,07,05,06,58,8.50
2011,07,05,06,59,8.60
2011,07,05,07,00,8.70
2011,07,05,07,01,8.70
2011,07,05,07,02,8.70
2011,07,05,07,03,8.80
2011,07,05,07,04,8.90
2011,07,05,07,05,9.00
2011,07,05,07,06,9.00
2011,07,05,07,07,9.10
2011,07,05,07,08,9.20
2011,07,05,07,09,9.30
2011,07,05,07,10,9.40
2011,07,05,07,11,9.50
2011,07,05,07,12,9.60
2011,07,05,07,13,9.70
2011,07,05,07,14,9.80
2011,07,05,07,15,9.90
2011,07,05,07,16,10.00
2011,07,05,07,17,10.20
2011,07,05,07,18,10.30
2011,07,05,07,19,10.30
2011,07,05,07,20,10.40
2011,07,05,07,21,10.50
2011,07,05,07,22,10.60
2011,07,05,07,23,10.60
2011,07,05,07,24,10.80
2011,07,05,07,25,10.90
2011,07,05,07,26,11.00
2011,07,05,07,27,11.10
2011,07,05,07,28,11.10
2011,07,05,07,29,11.30
2011,07,05,07,30,11.30
2011,07,05,07,31,11.40
2011,07,05,07,32,11.40
2011,07,05,07,33,11.30
2011,07,05,07,34,11.30
2011,07,05,07,35,11.30
2011,07,05,07,36,11.30
2011,07,05,07,37,11.30
2011,07,05,07,38,11.40
2011,07,05,07,39,11.40
2011,07,05,07,40,11.40
2011,07,05,07,41,11.40
2011,07,05,07,42,11.40
2011,07,05,07,43,11.60
2011,07,05,07,44,11.60
2011,07,05,07,45,11.60
2011,07,05,07,46,11.60
2011,07,05,07,47,11.50
2011,07,05,07,48,11.40
2011,07,05,07,49,11.40
2011,07,05,07,50,11.40
2011,07,05,07,51,11.30
2011,07,05,07,52,11.20
2011,07,05,07,53,11.20
2011,07,05,07,54,11.20
2011,07,05,07,55,11.20
2011,07,05,07,56,11.20
2011,07,05,07,57,11.20
2011,07,05,07,58,11.30
2011,07,05,07,59,11.30
2011,07,05,08,00,11.40
2011,07,05,08,01,11.40
2011,07,05,08,02,11.40
2011,07,05,08,03,11.50
2011,07,05,08,04,11.60
2011,07,05,08,05,11.60
2011,07,05,08,06,11.60
2011,07,05,08,07,11.70
2011,07,05,08,08,11.70
2011,07,05,08,09,11.80
2011,07,05,08,10,11.80
2011,07,05,08,11,11.90
2011,07,05,08,12,11.90
2011,07,05,08,13,11.80
2011,07,05,08,14,11.80
2011,07,05,08,15,11.80
2011,07,05,08,16,11.70
2011,07,05,08,17,11.70
2011,07,05,08,18,11.60
2011,07,05,08,19,11.60
2011,07,05,08,20,11.60
2011,07,05,08,21,11.60
2011,07,05,08,22,11.60
2011,07,05,08,23,11.40
2011,07,05,08,24,11.50
2011,07,05,08,25,11.60
2011,07,05,08,26,11.60
2011,07,05,08,27,11.60
2011,07,05,08,28,11.70
2011,07,05,08,29,11.70
2011,07,05,08,30,11.70
2011,07,05,08,31,11.70
2011,07,05,08,32,11.70
2011,07,05,08,33,11.70
2011,07,05,08,34,11.70
2011,07,05,08,35,11.70
2011,07,05,08,36,11.80
2011,07,05,08,37,11.80
2011,07,05,08,38,12.00
2011,07,05,08,39,12.10
2011,07,05,08,40,12.30
2011,07,05,08,41,12.30
2011,07,05,08,42,12.30
2011,07,05,08,43,12.40
2011,07,05,08,44,12.40
2011,07,05,08,45,12.30
2011,07,05,08,46,12.30
2011,07,05,08,47,12.20
2011,07,05,08,48,12.20
2011,07,05,08,49,12.10
2011,07,05,08,50,12.10
2011,07,05,08,51,12.10
2011,07,05,08,52,12.10
2011,07,05,08,53,12.10
2011,07,05,08,54,12.10
2011,07,05,08,55,12.10
2011,07,05,08,56,12.10
2011,07,05,08,57,12.10
2011,07,05,08,58,12.00
2011,07,05,08,59,12.10
2011,07,05,09,00,12.00
2011,07,05,09,01,12.00
2011,07,05,09,02,12.10
2011,07,05,09,03,12.10
2011,07,05,09,04,12.10
2011,07,05,09,05,12.20
2011,07,05,09,06,12.30
2011,07,05,09,07,12.30
2011,07,05,09,08,12.40
2011,07,05,09,09,12.60
2011,07,05,09,10,12.70
2011,07,05,09,11,12.80
2011,07,05,09,12,12.80
2011,07,05,09,13,12.80
2011,07,05,09,14,12.80
2011,07,05,09,15,12.80
2011,07,05,09,16,12.90
2011,07,05,09,17,12.80
2011,07,05,09,18,12.70
2011,07,05,09,19,12.50
2011,07,05,09,20,12.50
2011,07,05,09,21,12.30
2011,07,05,09,22,12.30
2011,07,05,09,23,12.30
2011,07,05,09,24,12.30
2011,07,05,09,25,12.30
2011,07,05,09,26,12.40
2011,07,05,09,27,12.40
2011,07,05,09,28,12.40
2011,07,05,09,29,12.40
2011,07,05,09,30,12.40
2011,07,05,09,31,12.50
2011,07,05,09,32,12.50
2011,07,05,09,33,12.50
2011,07,05,09,34,12.50
2011,07,05,09,35,12.60
2011,07,05,09,36,12.60
2011,07,05,09,37,12.60
2011,07,05,09,38,12.60
2011,07,05,09,39,12.60
2011,07,05,09,40,12.80
2011,07,05,09,41,12.90
2011,07,05,09,42,13.10
2011,07,05,09,43,13.10
2011,07,05,09,44,13.10
2011,07,05,09,45,13.00
2011,07,05,09,46,13.00
2011,07,05,09,47,13.00
2011,07,05,09,48,13.00
2011,07,05,09,49,13.00
2011,07,05,09,50,13.10
2011,07,05,09,51,13.20
2011,07,05,09,52,13.30
2011,07,05,09,53,13.30
2011,07,05,09,54,13.30
2011,07,05,09,55,13.30
2011,07,05,09,56,13.30
2011,07,05,09,57,13.30
2011,07,05,09,58,13.40
2011,07,05,09,59,13.50
2011,07,05,10,00,13.50
2011,07,05,10,01,13.50
2011,07,05,10,02,13.50
2011,07,05,10,03,13.60
2011,07,05,10,04,13.60
2011,07,05,10,05,13.50
2011,07,05,10,06,13.40
2011,07,05,10,07,13.30
2011,07,05,10,08,13.10
2011,07,05,10,09,13.00
2011,07,05,10,10,12.90
2011,07,05,10,11,12.90
2011,07,05,10,12,12.90
2011,07,05,10,13,12.90
2011,07,05,10,14,12.90
2011,07,05,10,15,13.00
2011,07,05,10,16,13.00
2011,07,05,10,17,13.00
2011,07,05,10,18,13.00
2011,07,05,10,19,13.00
2011,07,05,10,20,13.00
2011,07,05,10,21,13.00
2011,07,05,10,22,13.00
2011,07,05,10,23,13.10
2011,07,05,10,24,13.20
2011,07,05,10,25,13.20
2011,07,05,10,26,13.20
2011,07,05,10,27,13.20
2011,07,05,10,28,13.10
2011,07,05,10,29,13.10
2011,07,05,10,30,13.10
2011,07,05,10,31,13.10
2011,07,05,10,32,13.10
2011,07,05,10,33,13.20
2011,07,05,10,34,13.20
2011,07,05,10,35,13.30
2011,07,05,10,36,13.30
2011,07,05,10,37,13.30
2011,07,05,10,38,13.30
2011,07,05,10,39,13.40
2011,07,05,10,40,13.40
2011,07,05,10,41,13.50
2011,07,05,10,42,13.40
2011,07,05,10,43,13.40
2011,07,05,10,44,13.40
2011,07,05,10,45,13.40
2011,07,05,10,46,13.30
2011,07,05,10,47,13.30
2011,07,05,10,48,13.40
2011,07,05,10,49,13.60
2011,07,05,10,50,13.90
2011,07,05,10,51,14.20
2011,07,05,10,52,14.20
2011,07,05,10,53,14.20
2011,07,05,10,54,14.20
2011,07,05,10,55,14.20
2011,07,05,10,56,14.10
2011,07,05,10,57,14.10
2011,07,05,10,58,14.00
2011,07,05,10,59,14.00
2011,07,05,11,00,13.80
2011,07,05,11,01,13.80
2011,07,05,11,02,13.80
2011,07,05,11,03,13.90
2011,07,05,11,04,13.90
2011,07,05,11,05,13.90
2011,07,05,11,06,14.10
2011,07,05,11,07,14.30
2011,07,05,11,08,14.60
2011,07,05,11,09,14.80
2011,07,05,11,10,15.00
2011,07,05,11,11,15.10
2011,07,05,11,12,15.20
2011,07,05,11,13,15.30
2011,07,05,11,14,15.30
2011,07,05,11,15,15.30
2011,07,05,11,16,15.30
2011,07,05,11,17,15.40
2011,07,05,11,18,15.50
2011,07,05,11,19,15.60
2011,07,05,11,20,15.80
2011,07,05,11,21,16.10
2011,07,05,11,22,16.20
2011,07,05,11,23,16.40
2011,07,05,11,24,16.70
2011,07,05,11,25,16.90
2011,07,05,11,26,17.10
2011,07,05,11,27,17.30
2011,07,05,11,28,17.30
2011,07,05,11,29,17.30
2011,07,05,11,30,17.30
2011,07,05,11,31,17.30
2011,07,05,11,32,17.30
2011,07,05,11,33,17.40
2011,07,05,11,34,17.50
2011,07,05,11,35,17.50
2011,07,05,11,36,17.80
2011,07,05,11,37,18.00
2011,07,05,11,38,18.20
2011,07,05,11,39,18.20
2011,07,05,11,40,18.20
2011,07,05,11,41,18.10
2011,07,05,11,42,17.70
2011,07,05,11,43,17.40
2011,07,05,11,44,17.20
2011,07,05,11,45,17.20
2011,07,05,11,46,17.20
2011,07,05,11,47,17.20
2011,07,05,11,48,17.30
2011,07,05,11,49,17.30
2011,07,05,11,50,17.30
2011,07,05,11,51,17.10
2011,07,05,11,52,17.00
2011,07,05,11,53,16.80
2011,07,05,11,54,16.70
2011,07,05,11,55,16.80
2011,07,05,11,56,16.90
2011,07,05,11,57,17.10
2011,07,05,11,58,17.10
2011,07,05,11,59,16.90
2011,07,05,12,00,16.90
2011,07,05,12,01,16.90
2011,07,05,12,02,17.00
2011,07,05,12,03,17.10
2011,07,05,12,04,17.30
2011,07,05,12,05,17.40
2011,07,05,12,06,17.30
2011,07,05,12,07,17.20
2011,07,05,12,08,17.10
2011,07,05,12,09,17.10
2011,07,05,12,10,17.20
2011,07,05,12,11,17.30
2011,07,05,12,12,17.30
2011,07,05,12,13,17.50
2011,07,05,12,14,17.70
2011,07,05,12,15,18.00
2011,07,05,12,16,18.20
2011,07,05,12,17,18.50
2011,07,05,12,18,18.50
2011,07,05,12,19,18.50
2011,07,05,12,20,18.30
2011,07,05,12,21,18.30
2011,07,05,12,22,18.40
2011,07,05,12,23,18.40
2011,07,05,12,24,18.40
2011,07,05,12,25,18.30
2011,07,05,12,26,18.20
2011,07,05,12,27,18.30
2011,07,05,12,28,18.30
2011,07,05,12,29,18.50
2011,07,05,12,30,18.60
2011,07,05,12,31,18.60
2011,07,05,12,32,18.60
2011,07,05,12,33,18.60
2011,07,05,12,34,18.60
2011,07,05,12,35,18.60
2011,07,05,12,36,18.70
2011,07,05,12,37,18.90
2011,07,05,12,38,18.90
2011,07,05,12,39,19.10
2011,07,05,12,40,19.40
2011,07,05,12,41,19.60
2011,07,05,12,42,19.70
2011,07,05,12,43,19.60
2011,07,05,12,44,19.40
2011,07,05,12,45,19.40
2011,07,05,12,46,19.30
2011,07,05,12,47,19.40
2011,07,05,12,48,19.60
2011,07,05,12,49,19.80
2011,07,05,12,50,20.00
2011,07,05,12,51,20.00
2011,07,05,12,52,19.70
2011,07,05,12,53,19.50
2011,07,05,12,54,19.40
2011,07,05,12,55,19.40
2011,07,05,12,56,19.20
2011,07,05,12,57,19.10
2011,07,05,12,58,19.10
2011,07,05,12,59,19.10
2011,07,05,13,00,19.10
2011,07,05,13,01,19.20
2011,07,05,13,02,19.20
2011,07,05,13,03,19.30
2011,07,05,13,04,19.30
2011,07,05,13,05,19.40
2011,07,05,13,06,19.40
2011,07,05,13,07,19.50
2011,07,05,13,08,19.60
2011,07,05,13,09,19.60
2011,07,05,13,10,19.60
2011,07,05,13,11,19.60
2011,07,05,13,12,19.80
2011,07,05,13,13,19.90
2011,07,05,13,14,19.90
2011,07,05,13,15,20.00
2011,07,05,13,16,19.90
2011,07,05,13,17,20.00
2011,07,05,13,18,19.90
2011,07,05,13,19,19.80
2011,07,05,13,20,19.80
2011,07,05,13,21,19.90
2011,07,05,13,22,20.10
2011,07,05,13,23,20.20
2011,07,05,13,24,20.40
2011,07,05,13,25,20.50
2011,07,05,13,26,20.60
2011,07,05,13,27,20.70
2011,07,05,13,28,20.90
2011,07,05,13,29,20.90
2011,07,05,13,30,21.20
2011,07,05,13,31,21.40
2011,07,05,13,32,21.60
2011,07,05,13,33,21.80
2011,07,05,13,34,22.00
2011,07,05,13,35,22.20
2011,07,05,13,36,22.30
2011,07,05,13,37,22.30
2011,07,05,13,38,22.30
2011,07,05,13,39,22.20
2011,07,05,13,40,22.30
2011,07,05,13,41,22.30
2011,07,05,13,42,22.40
2011,07,05,13,43,22.50
2011,07,05,13,44,22.50
2011,07,05,13,45,22.60
2011,07,05,13,46,22.70
2011,07,05,13,47,22.80
2011,07,05,13,48,22.90
2011,07,05,13,49,22.90
2011,07,05,13,50,22.90
2011,07,05,13,51,23.00
2011,07,05,13,52,23.10
2011,07,05,13,53,23.20
2011,07,05,13,54,23.20
2011,07,05,13,55,23.10
2011,07,05,13,56,23.00
2011,07,05,13,57,22.90
2011,07,05,13,58,23.00
2011,07,05,13,59,23.10
2011,07,05,14,00,23.20
2011,07,05,14,01,23.10
2011,07,05,14,02,23.00
2011,07,05,14,03,22.90
2011,07,05,14,04,23.00
2011,07,05,14,05,23.00
2011,07,05,14,06,22.80
2011,07,05,14,07,22.70
2011,07,05,14,08,22.60
2011,07,05,14,09,22.40
2011,07,05,14,10,22.40
2011,07,05,14,11,22.40
2011,07,05,14,12,22.40
2011,07,05,14,13,22.40
2011,07,05,14,14,22.50
2011,07,05,14,15,22.50
2011,07,05,14,16,22.40
2011,07,05,14,17,22.30
2011,07,05,14,18,22.30
2011,07,05,14,19,22.40
2011,07,05,14,20,22.30
2011,07,05,14,21,22.30
2011,07,05,14,22,22.30
2011,07,05,14,23,22.40
2011,07,05,14,24,22.40
2011,07,05,14,25,22.30
2011,07,05,14,26,22.20
2011,07,05,14,27,22.10
2011,07,05,14,28,22.10
2011,07,05,14,29,22.20
2011,07,05,14,30,22.20
2011,07,05,14,31,22.30
2011,07,05,14,32,22.40
2011,07,05,14,33,22.40
2011,07,05,14,34,22.30
2011,07,05,14,35,22.40
2011,07,05,14,36,22.50
2011,07,05,14,37,22.50
2011,07,05,14,38,22.50
2011,07,05,14,39,22.50
2011,07,05,14,40,22.30
2011,07,05,14,41,22.20
2011,07,05,14,42,22.10
2011,07,05,14,43,22.00
2011,07,05,14,44,21.90
2011,07,05,14,45,21.90
2011,07,05,14,46,22.00
2011,07,05,14,47,22.10
2011,07,05,14,48,22.20
2011,07,05,14,49,22.20
2011,07,05,14,50,22.40
2011,07,05,14,51,22.40
2011,07,05,14,52,22.30
2011,07,05,14,53,22.30
2011,07,05,14,54,22.20
2011,07,05,14,55,22.20
2011,07,05,14,56,22.10
2011,07,05,14,57,22.00
2011,07,05,14,58,22.00
2011,07,05,14,59,22.00
2011,07,05,15,00,22.10
2011,07,05,15,01,22.00
2011,07,05,15,02,22.00
2011,07,05,15,03,22.00
2011,07,05,15,04,21.90
2011,07,05,15,05,21.80
2011,07,05,15,06,21.70
2011,07,05,15,07,21.60
2011,07,05,15,08,21.60
2011,07,05,15,09,21.60
2011,07,05,15,10,21.60
2011,07,05,15,11,21.60
2011,07,05,15,12,21.60
2011,07,05,15,13,21.70
2011,07,05,15,14,21.60
2011,07,05,15,15,21.60
2011,07,05,15,16,21.60
2011,07,05,15,17,21.60
2011,07,05,15,18,21.70
2011,07,05,15,19,21.80
2011,07,05,15,20,21.90
2011,07,05,15,21,21.90
2011,07,05,15,22,21.70
2011,07,05,15,23,21.60
2011,07,05,15,24,21.60
2011,07,05,15,25,21.60
2011,07,05,15,26,21.70
2011,07,05,15,27,21.60
2011,07,05,15,28,21.60
2011,07,05,15,29,21.60
2011,07,05,15,30,21.60
2011,07,05,15,31,21.60
2011,07,05,15,32,21.70
2011,07,05,15,33,21.80
2011,07,05,15,34,22.00
2011,07,05,15,35,22.10
2011,07,05,15,36,22.10
2011,07,05,15,37,22.10
2011,07,05,15,38,22.00
2011,07,05,15,39,22.00
2011,07,05,15,40,22.00
2011,07,05,15,41,22.00
2011,07,05,15,42,22.00
2011,07,05,15,43,22.00
2011,07,05,15,44,22.10
2011,07,05,15,45,22.10
2011,07,05,15,46,22.20
2011,07,05,15,47,22.30
2011,07,05,15,48,22.50
2011,07,05,15,49,22.50
2011,07,05,15,50,22.40
2011,07,05,15,51,22.50
2011,07,05,15,52,22.40
2011,07,05,15,53,22.30
2011,07,05,15,54,22.20
2011,07,05,15,55,21.70
2011,07,05,15,56,20.90
2011,07,05,15,57,20.40
2011,07,05,15,58,19.80
2011,07,05,15,59,19.30
2011,07,05,16,00,19.00
2011,07,05,16,01,18.80
2011,07,05,16,02,18.50
2011,07,05,16,03,18.20
2011,07,05,16,04,18.00
2011,07,05,16,05,17.80
2011,07,05,16,06,17.60
2011,07,05,16,07,17.40
2011,07,05,16,08,17.40
2011,07,05,16,09,17.40
2011,07,05,16,10,17.30
2011,07,05,16,11,17.50
2011,07,05,16,12,17.80
2011,07,05,16,13,17.90
2011,07,05,16,14,17.90
2011,07,05,16,15,17.90
2011,07,05,16,16,17.80
2011,07,05,16,17,17.90
2011,07,05,16,18,17.90
2011,07,05,16,19,17.80
2011,07,05,16,20,17.90
2011,07,05,16,21,17.80
2011,07,05,16,22,17.70
2011,07,05,16,23,17.70
2011,07,05,16,24,17.70
2011,07,05,16,25,17.80
2011,07,05,16,26,17.90
2011,07,05,16,27,17.90
2011,07,05,16,28,18.10
2011,07,05,16,29,18.20
2011,07,05,16,30,18.30
2011,07,05,16,31,18.30
2011,07,05,16,32,18.20
2011,07,05,16,33,18.20
2011,07,05,16,34,18.30
2011,07,05,16,35,18.50
2011,07,05,16,36,18.60
2011,07,05,16,37,18.60
2011,07,05,16,38,18.70
2011,07,05,16,39,18.50
2011,07,05,16,40,18.40
2011,07,05,16,41,18.40
2011,07,05,16,42,18.50
2011,07,05,16,43,18.50
2011,07,05,16,44,18.60
2011,07,05,16,45,18.70
2011,07,05,16,46,18.80
2011,07,05,16,47,18.90
2011,07,05,16,48,19.00
2011,07,05,16,49,19.10
2011,07,05,16,50,19.20
2011,07,05,16,51,19.40
2011,07,05,16,52,19.40
2011,07,05,16,53,19.60
2011,07,05,16,54,19.70
2011,07,05,16,55,19.80
2011,07,05,16,56,19.90
2011,07,05,16,57,20.20
2011,07,05,16,58,20.50
2011,07,05,16,59,20.90
2011,07,05,17,00,21.20
2011,07,05,17,01,21.70
2011,07,05,17,02,22.10
2011,07,05,17,03,22.40
2011,07,05,17,04,22.70
2011,07,05,17,05,22.90
2011,07,05,17,06,23.10
2011,07,05,17,07,23.30
2011,07,05,17,08,23.40
2011,07,05,17,09,23.50
2011,07,05,17,10,23.50
2011,07,05,17,11,23.40
2011,07,05,17,12,23.50
2011,07,05,17,13,23.60
2011,07,05,17,14,23.60
2011,07,05,17,15,23.60
2011,07,05,17,16,23.50
2011,07,05,17,17,23.60
2011,07,05,17,18,23.50
2011,07,05,17,19,23.40
2011,07,05,17,20,23.40
2011,07,05,17,21,23.30
2011,07,05,17,22,23.30
2011,07,05,17,23,23.20
2011,07,05,17,24,23.20
2011,07,05,17,25,23.20
2011,07,05,17,26,23.10
2011,07,05,17,27,23.10
2011,07,05,17,28,23.10
2011,07,05,17,29,23.10
2011,07,05,17,30,23.20
2011,07,05,17,31,23.20
2011,07,05,17,32,23.30
2011,07,05,17,33,23.30
2011,07,05,17,34,23.30
2011,07,05,17,35,23.30
2011,07,05,17,36,23.30
2011,07,05,17,37,23.30